WZ3X Weather Reports


time (UTC)temp
F
wind
direction
speed
knots
gust
knots
rain 1hr
in
rain 24hr
in
rain mn
in
humidity
%
barometer
mb
20260505200126 78 155 6.1 13.0 0.00 0.00 0.00 59 1014.6
20260505194642 78 167 7.0 13.0 0.00 0.00 0.00 58 1014.8
20260505193133 79 256 5.2 11.3 0.00 0.00 0.00 58 1014.9
20260505191624 79 151 5.2 10.4 0.00 0.00 0.00 57 1014.9
20260505190123 79 142 5.2 13.9 0.00 0.00 0.00 56 1014.9
20260505184619 78 162 6.1 11.3 0.00 0.00 0.00 58 1015.2
20260505183136 78 175 6.1 11.3 0.00 0.00 0.00 60 1015.2
20260505181625 78 153 6.1 9.6 0.00 0.00 0.00 61 1015.0
20260505180120 78 136 5.2 9.6 0.00 0.00 0.00 63 1015.1
20260505174639 77 202 6.1 8.7 0.00 0.00 0.00 63 1015.4
20260505173157 77 177 6.1 10.4 0.00 0.00 0.00 62 1015.5
20260505171632 77 190 5.2 7.8 0.00 0.00 0.00 60 1015.6
20260505170122 77 141 5.2 8.7 0.00 0.00 0.00 59 1015.6
20260505164623 76 177 5.2 8.7 0.00 0.00 0.00 59 1015.7
20260505163138 76 148 7.0 10.4 0.00 0.00 0.00 60 1015.5
20260505161633 76 178 6.1 9.6 0.00 0.00 0.00 60 1015.4
20260505160124 76 146 3.5 8.7 0.00 0.00 0.00 62 1015.5
20260505153136 75 150 4.3 8.7 0.00 0.00 0.00 62 1015.5
20260505151630 74 136 5.2 9.6 0.00 0.00 0.00 64 1015.5
20260505150125 74 105 5.2 11.3 0.00 0.00 0.00 64 1015.4
20260505140123 72 140 5.2 8.7 0.00 0.00 0.00 68 1015.1
20260505130132 67 121 3.5 6.1 0.00 0.00 0.00 80 1014.9
20260505124629 66 149 3.5 6.1 0.00 0.00 0.00 82 1015.0
20260505123124 65 107 4.3 7.0 0.00 0.00 0.00 83 1015.0
20260505121637 65 113 1.7 4.3 0.00 0.00 0.00 84 1015.0
20260505120130 64 113 1.7 4.3 0.00 0.00 0.00 84 1015.0
20260505114621 63 109 3.5 7.0 0.00 0.00 0.00 85 1014.8
20260505113142 63 106 2.6 4.3 0.00 0.00 0.00 86 1014.6
20260505111633 63 133 1.7 3.5 0.00 0.00 0.00 86 1014.4
20260505110128 63 161 0.9 6.1 0.00 0.00 0.00 86 1014.0
20260505101633 62 114 6.1 8.7 0.00 0.00 0.00 87 1014.1
20260505100130 62 89 5.2 7.0 0.00 0.00 0.00 88 1014.0
20260505094630 62 107 0.9 2.6 0.00 0.00 0.00 89 1013.9
20260505091627 62 124 1.7 4.3 0.00 0.00 0.00 89 1013.4
20260505090120 62 115 2.6 6.1 0.00 0.00 0.00 90 1013.4
20260505084639 60 111 1.7 2.6 0.00 0.00 0.00 93 1013.4
20260505083154 60 106 0.9 1.7 0.00 0.00 0.00 91 1013.3
20260505081627 62 106 0.9 2.6 0.00 0.00 0.00 91 1013.1
20260505080146 62 106 1.7 3.5 0.00 0.00 0.00 93 1013.1
20260505074624 59 263 0.9 1.7 0.00 0.00 0.00 94 1013.2
20260505073122 59 262 0.0 1.7 0.00 0.00 0.00 94 1013.4
20260505071655 58 263 0.0 0.0 0.00 0.00 0.00 93 1013.4
20260505070132 58 263 0.0 0.0 0.00 0.00 0.00 93 1013.5
20260505064627 58 263 0.0 0.0 0.00 0.00 0.00 91 1013.7
20260505063120 58 263 0.0 0.0 0.00 0.00 0.00 91 1013.9
20260505061614 58 263 0.0 0.9 0.00 0.00 0.00 90 1014.1
20260505060130 58 263 0.9 1.7 0.00 0.00 0.00 90 1014.0
20260505054627 58 263 0.0 0.9 0.00 0.00 0.00 88 1014.0
20260505053126 59 263 0.0 0.0 0.00 0.00 0.00 90 1014.2
20260505051618 60 263 0.0 0.0 0.00 0.00 0.00 90 1014.2
20260505050120 60 263 0.0 0.0 0.00 0.00 0.00 89 1014.0
20260505041619 61 263 0.0 1.7 0.00 0.00 0.00 87 1014.4
20260505040134 61 262 0.0 0.0 0.00 0.00 0.00 85 1014.6
20260505034626 61 263 0.0 0.0 0.00 0.00 0.00 83 1014.7
20260505033118 61 263 0.0 0.0 0.00 0.00 0.00 81 1014.7
20260505031638 62 263 0.0 0.0 0.00 0.00 0.00 80 1014.9
20260505030127 63 263 0.0 0.9 0.00 0.00 0.00 78 1015.0
20260505024647 64 263 0.0 0.0 0.00 0.00 0.00 77 1015.0
20260505023118 65 263 0.0 0.0 0.00 0.00 0.00 75 1015.0
20260505021612 67 263 0.9 1.7 0.00 0.00 0.00 74 1015.0
20260505020113 68 253 0.0 5.2 0.00 0.00 0.00 71 1015.2
20260505014633 69 228 0.9 3.5 0.00 0.00 0.00 70 1015.2
20260505013147 69 232 0.9 4.3 0.00 0.00 0.00 69 1015.0
20260505011620 69 241 1.7 3.5 0.00 0.00 0.00 68 1015.1
20260505010135 70 231 0.9 3.5 0.00 0.00 0.00 66 1015.0
20260505004632 70 233 2.6 5.2 0.00 0.00 0.00 63 1015.0
20260505003143 71 236 3.5 6.1 0.00 0.00 0.00 59 1015.0
20260505001622 71 209 3.5 8.7 0.00 0.00 0.00 55 1014.8
20260505000117 72 239 2.6 7.8 0.00 0.00 0.00 52 1014.7
20260504234618 72 251 5.2 7.8 0.00 0.00 0.00 50 1014.8
20260504233134 73 242 5.2 11.3 0.00 0.00 0.00 48 1014.9
20260504231634 73 225 6.1 10.4 0.00 0.00 0.00 48 1014.7
20260504230128 74 239 3.5 9.6 0.00 0.00 0.00 47 1014.8
20260504224622 75 246 4.3 12.2 0.00 0.00 0.00 44 1014.7
20260504223123 75 244 6.1 10.4 0.00 0.00 0.00 43 1014.9
20260504221634 75 234 7.0 12.2 0.00 0.00 0.00 44 1014.8
20260504220134 75 234 7.0 14.8 0.00 0.00 0.00 43 1014.7
20260504214631 76 261 6.1 11.3 0.00 0.00 0.00 42 1014.6
20260504213127 77 284 6.1 10.4 0.00 0.00 0.00 41 1014.6
20260504211620 76 219 7.0 13.0 0.00 0.00 0.00 41 1014.7
20260504210155 77 223 7.8 13.0 0.00 0.00 0.00 40 1014.5
20260504204626 79 257 7.8 12.2 0.00 0.00 0.00 35 1014.7
20260504203124 78 217 7.8 13.0 0.00 0.00 0.00 37 1014.9
20260504201621 78 230 7.8 13.9 0.00 0.00 0.00 37 1014.9